Regional Weather Roundup
Issued by NWS Little Rock, AR

Home | Current Version | Previous Version | Graphics & Text | Print | Product List | Glossary On
Versions: 1 2 3 4 5 6 7 8 9 10 11 12 13 14 15 16 17 18 19 20 21 22 23 24 25 26 27 28 29 30 31 32 33 34 35 36 37 38 39 40 41 42 43 44 45 46 47 48 49
000
ASUS44 KLZK 300305
RWRLZK

WEATHER ROUNDUP FOR ARKANSAS
NATIONAL WEATHER SERVICE LITTLE ROCK AR
1000 PM CDT SAT AUG 29 2015

NOTE: "FAIR" INDICATES FEW OR NO CLOUDS BELOW 12,000 FEET WITH NO
SIGNIFICANT WEATHER AND/OR OBSTRUCTIONS TO VISIBILITY.

ARZ001-003-010-029-300400-
NORTHWEST ARKANSAS

CITY           SKY/WX    TMP DP  RH WIND       PRES   REMARKS
FAYETTEVILLE   MOCLDY    71  70  96 CALM      30.02R
FORT SMITH     MOCLDY    78  68  71 NE5       29.97R
BENTONVILLE    CLOUDY    73  68  83 CALM      30.03R
ROGERS         LGT RAIN  76  69  79 SE5       30.03R
SILOAM SPGS    MOCLDY    73  66  78 NE3       30.00R
HIGHFILL       CLOUDY    73  72  96 N3        30.02R
$$

ARZ004-005-016-300400-
NORTH CENTRAL ARKANSAS

CITY           SKY/WX    TMP DP  RH WIND       PRES   REMARKS
BATESVILLE     MOCLDY    72  68  88 CALM      30.03R
FLIPPIN        CLEAR     72  63  73 SE5       30.01R
MTN HOME       CLEAR     71  65  81 SE5       30.02R
$$

ARZ040-041-300400-
WEST CENTRAL ARKANSAS

CITY           SKY/WX    TMP DP  RH WIND       PRES   REMARKS
MENA           CLEAR     73  72  94 CALM      30.03R
MOUNT IDA      CLEAR     72  70  93 CALM      30.00R FOG
$$

ARZ009-017-025-026-028-300400-
NORTHEAST ARKANSAS

CITY           SKY/WX    TMP DP  RH WIND       PRES   REMARKS
JONESBORO      PTCLDY    70  69  97 NE3       30.02R
NEWPORT        MOCLDY    74  72  93 CALM      30.03R
WALNUT RIDGE   MOCLDY    73  64  73 CALM      30.02S
BLYTHEVILLE    CLOUDY    77  72  84 E3        30.03R
$$

ARZ022-023-033-042-044-300400-
CENTRAL ARKANSAS

CITY           SKY/WX    TMP DP  RH WIND       PRES   REMARKS
LITTLE ROCK    MOCLDY    77  69  76 CALM      30.01R
N LITTLE ROCK  MOCLDY    76  70  81 CALM      30.01R
JACKSONVILLE   MOCLDY    74  69  86 NE1       30.01R
SEARCY         CLOUDY    73  70  90 CALM      30.03R
HOT SPRINGS    CLEAR     75  68  78 E3        30.02R
RUSSELLVILLE   PTCLDY    75  70  84 SE3       30.00R
$$

ARZ036-300400-
EAST ARKANSAS

CITY           SKY/WX    TMP DP  RH WIND       PRES   REMARKS
WEST MEMPHIS   CLOUDY    75  70  84 CALM      30.01R
$$

ARZ050-053-066-070-073-300400-
SOUTHWEST ARKANSAS

CITY           SKY/WX    TMP DP  RH WIND       PRES   REMARKS
ARKADELPHIA    FAIR      74  73  96 CALM      30.00R
CAMDEN         MOCLDY    77  70  78 CALM      30.00R
TEXARKANA      PTCLDY    81  71  71 SE5       30.00R HX  85
EL DORADO      CLOUDY    79  68  69 CALM      30.00R
DE QUEEN       CLEAR     74  73  97 CALM      29.97R
$$

ARZ056-057-069-300400-
SOUTHEAST ARKANSAS

CITY           SKY/WX    TMP DP  RH WIND       PRES   REMARKS
PINE BLUFF     MOCLDY    78  67  68 CALM      30.01R
STUTTGART      CLOUDY    79  66  65 CALM      30.01R
MONTICELLO     CLOUDY    78  70  76 CALM      30.00R

$$





USA.gov is the U.S. government's official web portal to all federal, state and local government web resources and services.